SL-16 DEB, 39850

Orbit data source: Space-Track

SL-16 DEB, 39850 is space debris in LEO originally from a launch on Fri, 25 Dec 1992 UTC launched from the Tyuratam Missile And Space Complex (TTMTR). Debris objects in space refer to the collection of defunct objects orbiting the Earth. Examples of debris include non-operational satellites, rocket bodies, and fragments generated from explosions, collisions, or faulty payload assembly.

Loading next visibility...
Identifier
39850, 1992-093LC
Orbit
LEO
Country
Flag of CISCIS
Related business
Manufacturer
Unknown
Mission
Spacecraft
Bus & Motor
Unknown
Mass
Unknown
Launch date (UTC)
1992-12-25 (33 years ago)
Launch vehicle
Unknown
Launch site
Tyuratam Missile And Space Complex (TTMTR)
Object type
Payload
Rocket body
Debris
Shape & HBR
Unknown shape, 0.1 m
Radar Cross Section
Small (<0.1 m²)

Expand to show TLE details & history
Last TLE update: 3 days ago

TLE from 3 days ago
0 SL-16 DEB
1 39850U 92093LC  25347.18307368  .00001267  00000-0  74624-3 0  9997
2 39850  71.3348 149.6257 0091764 327.3663  32.1806 14.07694309310157
Epoch: 2025-12-13T04:23Z
TLE epoch observation values (Epoch: 2025-12-13T04:23:37.565Z)
Latitude
-0.00006°
Longitude
1.60515°
Altitude
813.581 km
Speed
7.475 km/s
True Right ascension
09h 58m 30s
True Declination
0° 00' 00"
Sunlit
Object was in daylight at epoch
Visualization orbit readout
Latitude
Unknown
Longitude
Unknown
Altitude
Unknown
Speed
Unknown
Apparent Right ascension
Unknown
Apparent Declination
Unknown
Sunlit
N/A
Visualization observer readout
Local Sidereal Time
15:11:05
Azimuth
Unknown
Elevation
Unknown
Doppler factor
Unknown
Orbital elements
Apogee altitude
931.639 km
Perigee altitude
798.704 km
Semi-major axis
7,243.309 km
Eccentricity
0.00918
Inclination
71.3348°
RAAN
149.6257°
Arg. of periapsis
327.3663°
True anomaly
32.74612°
Mean anomaly
32.1806°
Eccentric anomaly
32.46281°
Mean motion
3.52077 °/min
Orbital period
102.25 mins
BSTAR
0.00074624
Loading maneuver chart data...
Computing Atmospheric mass density...
Loading historical data...
Loading historical data...
Loading historical data...
Loading historical data...
Loading historical data...
Loading historical data...
Loading historical data...

Documentation

Showing up to 5 results
|